Weather in Belebey

Russia / Republic of Bashkortostan     54°06′12″N   54°06′40″E
temp.,
°C
wind,
m/s
gust,
m/s
humid.,
%
clouds,
%
prec.,
mm/h
press.,
hPa
HPBL,
m
28 february, sun
sun2823:00−3sse5897100 2.6 999260
02:00−2s3798100 2.1 998303
05:00−2wsw2399100 3.2 998105
08:00−4nw469794 0.6 999149
11:00−7nnw469587 0.7 1000233
14:00−7n579598 0.0 1002329
17:00−9nnw589499 0.1 1004362
20:00−13nnw499699 0.1 1007245
1 march, mon
mon123:00−15nnw369897 0.1 1009127
02:00−16nnw3698100 0.0 1011123
05:00−17nnw369896 0.1 1013115
08:00−17nnw369687 0.1 1015187
11:00−16nnw359584 0.2 1017206
14:00−14nw349390 0.1 1018288
17:00−14nw359495 0.1 1020360
20:00−19nw22100100 0.0 102020
2 march, tue
tue223:00−22wsw1210089 0.1 102020
02:00−22sw3310097 0.0 102025
05:00−23sw4410090 0.0 101874
08:00−22ssw5910095 0.0 1016161
11:00−18s7129898 0.1 1013283
14:00−14ssw81395100 0.2 1010404
17:00−12ssw91594100 0.9 1008563
20:00−10ssw81594100 1.1 1005615
3 march, wed
wed323:00−6ssw81495100 2.2 1002627
02:00−5ssw71295100 1.0 999525
05:00−5ssw61196100 1.8 998413
08:00−5sw4897100 0.9 998242
11:00−4w589699 1.3 999402
14:00−3wnw6893100 0.3 1000652
17:00−4nw5792100 0.4 1001541
20:00−5nw4894100 0.1 1002472
4 march, thu
thu423:00−7nw3697100 0.3 1004132
02:00−9wnw359799 0.1 100599
05:00−9nw389797 0.3 1007224
08:00−13nw349987 0.1 100965
11:00−11wnw479690 0.1 1011262
14:00−9w579398 0.0 1011450
17:00−8wsw6109499 0.1 1012584
20:00−9sw71495100 0.1 1010465